• Join FlightAware (Why Join?)
  • Login
  • US Flag 
04:52PM EST


 

Airport Tracker/Info


-or-


 

Live Flight TrackerFlight Track Log ✈ ASQ4209 ✈ 14-May-2013 ✈ KSAT - KIAH

Flight Track Log - Related Links

Times and Time Zones

All times are in EDT time to prevent confusion due to time zone crossing. See the ASQ4209 flight status page for this flight to view local times or setup timezone preferences in your user account.

Time Position Orientation Groundspeed Altitude Reporting Facility
EDT Latitude Longitude Course Direction KTS MPH feet Rate Location/Type
07:48PM 29.5222 -98.4592 77° East 170 196 1,400  Level Houston Center
07:49PM 29.5025 -98.4317 129° Southeast 184 212 2,700 2,289 Climbing Houston Center
07:50PM 29.5094 -98.3647 83° East 237 273 5,100 2,419 Climbing Houston Center
07:51PM 29.5300 -98.2911 72° East 223 257 7,700 2,016 Climbing Houston Center
07:52PM 29.5984 -98.1883 69° East  Level FlightAware Approximate
07:52PM 29.5500 -98.2136 73° East 252 290 9,300  Level Houston Center
07:53PM 29.6132 -98.1177 77° East  Level FlightAware Approximate
07:53PM 29.5767 -98.1122 73° East 316 364 10,200  Level Houston Center
07:54PM 29.6273 -98.0469 77° East  Level FlightAware Approximate
07:54PM 29.6033 -98.0119 73° East 326 375 12,900  Level Houston Center
07:55PM 29.6292 -97.9156 73° East 293 337 15,800 1,854 Climbing Houston Center
07:56PM 29.6508 -97.8367 72° East 299 344 16,700 927 Climbing Houston Center
07:57PM 29.6553 -97.7286 87° East 332 382 17,700 726 Climbing Houston Center
07:58PM 29.6556 -97.6114 90° East 357 411 18,200 585 Climbing Houston Center
07:59PM 29.6572 -97.4592 89° East 391 450 18,900 390 Climbing Houston Center
08:00PM 29.6583 -97.3292 89° East 404 465 19,000 48 Climbing Houston Center
08:01PM 29.6597 -97.1975 89° East 409 471 19,000  Level Houston Center
08:02PM 29.6594 -97.0653 90° East 412 474 19,000  Level Houston Center
08:03PM 29.6481 -96.9378 96° East 400 460 19,000  Level Houston Center
08:04PM 29.6258 -96.8111 101° East 400 460 19,000  Level Houston Center
08:05PM 29.6044 -96.6847 101° East 399 459 19,000  Level Houston Center
08:07PM 29.5894 -96.5564 98° East 402 463 19,000 -1,161 Level Houston Center
08:08PM 29.5756 -96.4336 97° East 389 448 16,600 -2,892 Descending Houston Center
08:08PM 29.5672 -96.3706 99° East 376 433 15,000 -3,836 Descending Houston Center
08:09PM 29.5600 -96.2931 96° East 372 428 12,700 -3,441 Descending Houston Center
08:09PM 29.5544 -96.2472 98° East 362 417 11,100 -2,419 Descending Houston Center
08:10PM 29.5467 -96.1836 98° East 351 404 10,200 -1,180 Descending Houston Center
08:10PM 29.5583 -96.1436 71° East 310 357 9,900 -1,065 Descending Houston Center
08:11PM 29.5800 -96.0983 61° Northeast 295 339 9,100 -1,967 Descending Houston Center
08:11PM 29.5994 -96.0597 60° Northeast 273 314 7,900 -1,839 Descending Houston Center
08:12PM 29.6189 -96.0208 60° Northeast 283 326 7,200 -896 Descending Houston Center
08:12PM 29.6467 -95.9753 55° Northeast 283 326 6,900 -194 Descending Houston Center
08:13PM 29.6833 -95.9531 28° Northeast 291 335 7,000 98 Climbing Houston Center
08:13PM 29.7225 -95.9303 27° Northeast 294 338 7,000  Level Houston Center
08:14PM 29.7558 -95.9089 29° Northeast 294 338 7,000  Level Houston Center
08:14PM 29.7942 -95.8861 27° Northeast 294 338 7,000  Level Houston Center
08:15PM 29.8292 -95.8667 26° Northeast 295 339 7,000  Level Houston Center
08:15PM 29.8678 -95.8631 North 257 296 7,000  Level Houston Center
08:16PM 29.9011 -95.8594 North 263 303 7,000  Level Houston Center
08:16PM 29.9403 -95.8547 North 256 295 7,000 -97 Level Houston Center
08:17PM 29.9639 -95.8314 41° Northeast 255 293 6,900 -393 Descending Houston Center
08:17PM 29.9861 -95.8014 49° Northeast 223 257 6,600 -387 Descending Houston Center
08:18PM 29.9919 -95.7703 78° East 225 259 6,500 -194 Descending Houston Center
08:18PM 29.9925 -95.7306 89° East 205 236 6,400 -194 Descending Houston Center
08:19PM 29.9931 -95.7044 89° East 206 237 6,300 -764 Descending Houston Center
08:19PM 29.9914 -95.6728 93° East 195 224 5,700 -1,548 Descending Houston Center
08:20PM 29.9933 -95.6292 87° East 198 228 4,700 -1,254 Descending Houston Center
08:20PM 29.9914 -95.6028 95° East 194 223 4,300 -871 Descending Houston Center
08:21PM 29.9933 -95.5683 86° East 191 220 3,800 -984 Descending Houston Center
08:21PM 29.9925 -95.5425 92° East 187 215 3,300 -968 Descending Houston Center
08:22PM 29.9933 -95.5094 88° East 187 215 2,800 -968 Descending Houston Center
08:22PM 29.9914 -95.4847 95° East 174 200 2,300 -968 Descending Houston Center
08:23PM 29.9936 -95.4547 85° East 180 207 1,800 -764 Descending Houston Center
08:23PM 29.9933 -95.4361 91° East 155 178 1,600 -689 Descending Houston Center
08:24PM 29.9936 -95.4086 89° East 164 189 1,100 -698 Descending Houston Center